Time,TemperatureF,DewpointF,PressureIn,WindDirection,WindDirectionDegrees,WindSpeedMPH,WindSpeedGustMPH,Humidity,HourlyPrecipIn,Conditions,Clouds,dailyrainin,SolarRadiationWatts/m^2,SoftwareType,DateUTC
2013-04-12 07:00:00,33.0,31.0,29.88,West,260,7.0,-999.0,91,-99.99,,,-99.99,107.800003,,2013-04-12 13:00:00,
2013-04-12 07:53:00,33.0,31.0,29.88,West,260,7.0,-999.0,91,-99.99,,,-99.99,107.800003,,2013-04-12 13:53:00,
2013-04-12 08:00:00,39.0,33.0,29.91,West,274,8.0,-999.0,78,-99.99,,,-99.99,205.500000,,2013-04-12 14:00:00,
2013-04-12 08:53:00,39.0,33.0,29.91,West,274,8.0,-999.0,78,-99.99,,,-99.99,205.500000,,2013-04-12 14:53:00,
2013-04-12 09:00:00,43.0,32.0,29.93,NW,308,11.0,-999.0,67,-99.99,,,-99.99,428.899994,,2013-04-12 15:00:00,
2013-04-12 09:53:00,43.0,32.0,29.93,NW,308,11.0,-999.0,67,-99.99,,,-99.99,428.899994,,2013-04-12 15:53:00,
2013-04-12 10:00:00,47.0,34.0,29.94,NNW,338,12.0,-999.0,59,-99.99,,,-99.99,610.900024,,2013-04-12 16:00:00,
2013-04-12 10:53:00,47.0,34.0,29.94,NNW,338,12.0,-999.0,59,-99.99,,,-99.99,610.900024,,2013-04-12 16:53:00,
2013-04-12 11:00:00,49.0,35.0,29.94,NNW,329,11.0,-999.0,58,-99.99,,,-99.99,622.900024,,2013-04-12 17:00:00,
2013-04-12 12:00:00,50.0,32.0,29.94,NNW,333,11.0,-999.0,50,-99.99,,,-99.99,606.599976,,2013-04-12 18:00:00,
2013-04-12 13:00:00,48.0,34.0,29.94,NNW,342,10.0,-999.0,58,-99.99,,,-99.99,287.500000,,2013-04-12 19:00:00,
2013-04-12 13:53:00,48.0,34.0,29.94,NNW,342,10.0,-999.0,58,-99.99,,,-99.99,287.500000,,2013-04-12 19:53:00,
2013-04-12 14:00:00,45.0,38.0,29.96,NW,325,8.0,-999.0,77,-99.99,,,-99.99,130.199997,,2013-04-12 20:00:00,
2013-04-12 14:52:00,45.0,38.0,29.96,NW,325,8.0,-999.0,77,-99.99,,,-99.99,130.199997,,2013-04-12 20:52:00,
2013-04-12 15:00:00,44.0,37.0,29.97,North,353,9.0,-999.0,75,-99.99,,,-99.99,317.500000,,2013-04-12 21:00:00,
2013-04-12 15:53:00,44.0,37.0,29.97,North,353,9.0,-999.0,75,-99.99,,,-99.99,317.500000,,2013-04-12 21:53:00,
2013-04-12 16:00:00,40.0,37.0,29.99,NNW,334,18.0,-999.0,90,-99.99,,,-99.99,133.199997,,2013-04-12 22:00:00,
2013-04-12 17:00:00,42.0,37.0,29.99,NNW,346,10.0,-999.0,84,-99.99,,,-99.99,356.500000,,2013-04-12 23:00:00,
2013-04-12 17:52:00,42.0,37.0,29.99,NNW,346,10.0,-999.0,84,-99.99,,,-99.99,356.500000,,2013-04-12 23:52:00,
2013-04-12 18:00:00,43.0,37.0,30.00,NNW,342,9.0,-999.0,81,-99.99,,,-99.99,234.800003,,2013-04-13 00:00:00,
2013-04-12 18:52:00,43.0,37.0,30.00,NNW,342,9.0,-999.0,81,-99.99,,,-99.99,234.800003,,2013-04-13 00:52:00,
2013-04-12 19:00:00,43.0,38.0,29.98,NNW,330,6.0,-999.0,82,-99.99,,,-99.99,92.400002,,2013-04-13 01:00:00,
2013-04-12 19:52:00,43.0,38.0,29.98,NNW,330,6.0,-999.0,82,-99.99,,,-99.99,92.400002,,2013-04-13 01:52:00,